SJX1138 EKCH-LIPX

Flight info

Callsign SJX1138
Flight time N/A
Altitude 39000
Route SALLO M736 BAKDO DCT ABERU/N0479F410 DCT ALUTU/N0475F400 DCT BADVI DCT BERAS/N0479F410 M736 OLPIX/N0383F190 M736 OZE T897 ANJAT
Aircraft A359/H-SDE2E3GHIJ3J4J5LM1ORWXY/LB1D1

Departure

Time 2026-05-05 07:44
Airport Copenhagen Kastrup Airport (EKCH)

Arrival

Time N/A
Airport Verona Villafranca Valerio Catullo Airport (LIPX)
Time Latitude Longitude Altitude Speed Heading
2026-05-05 07:17 55.62429 12.65045 25 ft 0 kts 269°
2026-05-05 07:19 55.62504 12.65042 23 ft 0 kts 268°
2026-05-05 07:32 55.62504 12.65043 23 ft 1 kts 268°
2026-05-05 07:32 55.62505 12.65084 26 ft 4 kts 268°
2026-05-05 07:32 55.62506 12.65132 27 ft 4 kts 269°
2026-05-05 07:32 55.62507 12.65169 27 ft 4 kts 240°
2026-05-05 07:33 55.62525 12.65195 28 ft 4 kts 189°
2026-05-05 07:33 55.62537 12.65197 27 ft 3 kts 178°
2026-05-05 07:33 55.62521 12.65198 28 ft 0 kts 179°
2026-05-05 07:38 55.62507 12.65198 26 ft 4 kts 180°
2026-05-05 07:38 55.62466 12.65200 25 ft 8 kts 179°
2026-05-05 07:38 55.62402 12.65202 26 ft 11 kts 179°
2026-05-05 07:39 55.62319 12.65202 25 ft 12 kts 181°
2026-05-05 07:39 55.62233 12.65191 27 ft 13 kts 193°
2026-05-05 07:39 55.62148 12.65110 27 ft 13 kts 213°
2026-05-05 07:39 55.62065 12.65015 28 ft 15 kts 213°
2026-05-05 07:40 55.61965 12.64901 26 ft 19 kts 213°
2026-05-05 07:40 55.61876 12.64799 27 ft 16 kts 213°
2026-05-05 07:40 55.61778 12.64685 27 ft 18 kts 212°
2026-05-05 07:40 55.61699 12.64597 28 ft 10 kts 212°
2026-05-05 07:41 55.61657 12.64505 26 ft 11 kts 252°
2026-05-05 07:41 55.61648 12.64366 25 ft 12 kts 266°
2026-05-05 07:41 55.61647 12.64352 24 ft 0 kts 265°
2026-05-05 07:42 55.61647 12.64351 23 ft 1 kts 265°
2026-05-05 07:43 55.61645 12.64302 24 ft 6 kts 265°
2026-05-05 07:43 55.61642 12.64217 25 ft 7 kts 265°
2026-05-05 07:43 55.61637 12.64127 27 ft 7 kts 261°
2026-05-05 07:43 55.61608 12.64052 27 ft 9 kts 224°
2026-05-05 07:44 55.61495 12.63876 30 ft 51 kts 221°
2026-05-05 07:44 55.61066 12.63210 27 ft 114 kts 221°
2026-05-05 07:44 55.60321 12.62056 65 ft 164 kts 222°
2026-05-05 07:44 55.59435 12.60706 627 ft 173 kts 224°
2026-05-05 07:45 55.58470 12.59246 1106 ft 194 kts 221°
2026-05-05 07:45 55.57382 12.57645 1752 ft 207 kts 221°
2026-05-05 07:45 55.56295 12.56044 2756 ft 199 kts 221°
2026-05-05 07:45 55.55083 12.54924 3613 ft 198 kts 196°
2026-05-05 07:46 55.53754 12.54320 4433 ft 197 kts 197°
2026-05-05 07:46 55.52450 12.53678 5206 ft 198 kts 199°
2026-05-05 07:46 55.51049 12.53418 5991 ft 204 kts 178°
2026-05-05 07:46 55.49695 12.54246 6765 ft 209 kts 150°
2026-05-05 07:47 55.48555 12.55830 7095 ft 212 kts 142°
2026-05-05 07:47 55.47447 12.57566 7296 ft 219 kts 148°
2026-05-05 07:47 55.46259 12.59278 7598 ft 221 kts 152°
2026-05-05 07:47 55.45047 12.60971 7939 ft 224 kts 152°
2026-05-05 07:48 55.43832 12.62699 8293 ft 225 kts 152°
2026-05-05 07:48 55.42619 12.64454 8637 ft 227 kts 152°
2026-05-05 07:48 55.41399 12.66235 8979 ft 228 kts 152°
2026-05-05 07:48 55.40174 12.68030 9328 ft 230 kts 152°
2026-05-05 07:49 55.38942 12.69839 9686 ft 232 kts 152°
2026-05-05 07:49 55.37696 12.71664 10020 ft 234 kts 152°
2026-05-05 07:49 55.36443 12.73499 10371 ft 235 kts 152°
2026-05-05 07:49 55.35184 12.75345 10729 ft 236 kts 143°
2026-05-05 07:50 55.33982 12.77326 11068 ft 239 kts 141°
2026-05-05 07:50 55.32721 12.79271 11764 ft 241 kts 148°
2026-05-05 07:50 55.31429 12.81123 12591 ft 240 kts 148°
2026-05-05 07:50 55.30132 12.82979 13360 ft 242 kts 148°
2026-05-05 07:51 55.28822 12.84870 14101 ft 245 kts 148°
2026-05-05 07:51 55.27502 12.86786 14801 ft 248 kts 148°
2026-05-05 07:51 55.26168 12.88729 15529 ft 250 kts 148°
2026-05-05 07:51 55.24820 12.90694 16212 ft 253 kts 148°
2026-05-05 07:52 55.23457 12.92681 16905 ft 256 kts 148°
2026-05-05 07:52 55.22079 12.94690 17577 ft 260 kts 148°
2026-05-05 07:52 55.20681 12.96727 18253 ft 263 kts 148°
2026-05-05 07:52 55.19267 12.98786 18840 ft 266 kts 148°
2026-05-05 07:53 55.17837 13.00866 19430 ft 269 kts 149°
2026-05-05 07:53 55.16395 13.02965 20058 ft 271 kts 149°